Wetterdaten: Dienstag, 29.03.2016
Datum Zeit Auen-Temp. Temp gefhlt Luftfeuchte Luftdruck Regen Wind Richtung Richtung Sonnenschein Taupunkt Windben
29.03.2016 00:00 4,1 C 3,7 C 78 % 1008,4 hPa 0,0 mm 0,0 km/h (0 Bft) N-NO 22 0 min 0,6 C 0,0 km/h (0 Bft)
29.03.2016 00:05 4,5 C 4,1 C 75 % 1008,4 hPa 0,0 mm 0,6 km/h (0 Bft) O-SO 112 0 min 0,5 C 4,5 km/h (1 Bft)
29.03.2016 00:10 4,7 C 4,3 C 78 % 1008,4 hPa 0,0 mm 0,6 km/h (0 Bft) S-SO 157 0 min 1,2 C 0,0 km/h (0 Bft)
29.03.2016 00:15 4,5 C 4,2 C 78 % 1008,4 hPa 0,0 mm 0,6 km/h (0 Bft) S 180 0 min 1,0 C 12,8 km/h (3 Bft)
29.03.2016 00:20 5,9 C 5,5 C 74 % 1008,4 hPa 0,0 mm 4,5 km/h (1 Bft) SW 225 0 min 1,6 C 18,5 km/h (3 Bft)
29.03.2016 00:25 6,8 C 6,2 C 70 % 1008,4 hPa 0,0 mm 11,0 km/h (2 Bft) SW 225 0 min 1,7 C 23,5 km/h (4 Bft)
29.03.2016 00:30 6,4 C 6,1 C 69 % 1008,7 hPa 0,0 mm 10,7 km/h (2 Bft) SW 225 0 min 1,1 C 13,1 km/h (3 Bft)
29.03.2016 00:35 6,1 C 6,0 C 68 % 1008,7 hPa 0,0 mm 8,0 km/h (2 Bft) S-SO 157 0 min 0,6 C 7,2 km/h (2 Bft)
29.03.2016 00:40 5,8 C 5,8 C 69 % 1008,7 hPa 0,0 mm 8,3 km/h (2 Bft) S 180 0 min 0,6 C 6,0 km/h (2 Bft)
29.03.2016 00:45 5,5 C 5,7 C 69 % 1008,7 hPa 0,0 mm 6,9 km/h (2 Bft) S-SO 157 0 min 0,3 C 6,0 km/h (2 Bft)
29.03.2016 00:50 5,5 C 5,4 C 70 % 1008,9 hPa 0,0 mm 7,7 km/h (2 Bft) S 180 0 min 0,5 C 16,1 km/h (3 Bft)
29.03.2016 00:55 5,9 C 5,5 C 68 % 1008,9 hPa 0,0 mm 10,1 km/h (2 Bft) S 180 0 min 0,5 C 11,3 km/h (2 Bft)
29.03.2016 01:00 6,2 C 5,8 C 67 % 1008,9 hPa 0,0 mm 11,6 km/h (2 Bft) S-SW 202 0 min 0,5 C 11,3 km/h (2 Bft)
29.03.2016 01:05 6,4 C 6,1 C 65 % 1008,9 hPa 0,0 mm 9,2 km/h (2 Bft) SW 225 0 min 0,3 C 11,3 km/h (2 Bft)
29.03.2016 01:10 6,4 C 6,1 C 64 % 1009,0 hPa 0,0 mm 8,9 km/h (2 Bft) S 180 0 min 0,1 C 14,9 km/h (3 Bft)
29.03.2016 01:15 6,8 C 6,3 C 63 % 1009,0 hPa 0,0 mm 10,4 km/h (2 Bft) SW 225 0 min 0,3 C 10,7 km/h (2 Bft)
29.03.2016 01:20 7,2 C 6,7 C 61 % 1009,0 hPa 0,0 mm 11,9 km/h (2 Bft) S-SW 202 0 min 0,2 C 14,6 km/h (3 Bft)
29.03.2016 01:25 7,3 C 6,8 C 60 % 1009,0 hPa 0,0 mm 11,9 km/h (2 Bft) S 180 0 min 0,1 C 14,3 km/h (3 Bft)
29.03.2016 01:30 7,2 C 6,8 C 59 % 1009,1 hPa 0,0 mm 11,0 km/h (2 Bft) S 180 0 min -0,3 C 11,0 km/h (2 Bft)
29.03.2016 01:35 7,3 C 6,9 C 59 % 1009,1 hPa 0,0 mm 10,4 km/h (2 Bft) W-SW 247 0 min -0,2 C 7,7 km/h (2 Bft)
29.03.2016 01:40 7,4 C 7,0 C 59 % 1009,1 hPa 0,0 mm 10,1 km/h (2 Bft) W-SW 247 0 min -0,1 C 12,2 km/h (2 Bft)
29.03.2016 01:45 6,9 C 6,6 C 59 % 1009,1 hPa 0,0 mm 8,9 km/h (2 Bft) W-SW 247 0 min -0,5 C 10,7 km/h (2 Bft)
29.03.2016 01:50 6,8 C 6,6 C 59 % 1009,0 hPa 0,0 mm 7,7 km/h (2 Bft) SW 225 0 min -0,6 C 7,7 km/h (2 Bft)
29.03.2016 01:55 6,8 C 6,5 C 59 % 1009,0 hPa 0,0 mm 7,7 km/h (2 Bft) S 180 0 min -0,6 C 10,1 km/h (2 Bft)
29.03.2016 02:00 6,8 C 6,5 C 59 % 1009,0 hPa 0,0 mm 8,0 km/h (2 Bft) SW 225 0 min -0,6 C 9,8 km/h (2 Bft)
29.03.2016 02:05 6,8 C 6,4 C 58 % 1009,0 hPa 0,0 mm 8,0 km/h (2 Bft) S 180 0 min -0,9 C 9,8 km/h (2 Bft)
29.03.2016 02:10 6,8 C 6,4 C 58 % 1008,9 hPa 0,0 mm 8,3 km/h (2 Bft) S-SW 202 0 min -0,9 C 10,4 km/h (2 Bft)
29.03.2016 02:15 6,9 C 6,5 C 58 % 1008,9 hPa 0,0 mm 8,6 km/h (2 Bft) NW 315 0 min -0,8 C 12,8 km/h (3 Bft)
29.03.2016 02:20 6,9 C 6,5 C 58 % 1008,9 hPa 0,0 mm 8,6 km/h (2 Bft) S-SW 202 0 min -0,8 C 11,0 km/h (2 Bft)
29.03.2016 02:25 6,8 C 6,4 C 58 % 1008,9 hPa 0,0 mm 8,3 km/h (2 Bft) SW 225 0 min -0,9 C 10,7 km/h (2 Bft)
29.03.2016 02:30 6,8 C 6,4 C 58 % 1008,9 hPa 0,0 mm 8,6 km/h (2 Bft) W-SW 247 0 min -0,9 C 16,4 km/h (3 Bft)
29.03.2016 02:32 6,8 C 6,4 C 58 % 1008,9 hPa 0,0 mm 8,6 km/h (2 Bft) W-SW 247 0 min -0,9 C 16,4 km/h (3 Bft)
29.03.2016 02:35 6,7 C 6,4 C 58 % 1008,9 hPa 0,0 mm 8,6 km/h (2 Bft) SW 225 0 min -1,0 C 11,3 km/h (2 Bft)
29.03.2016 02:40 6,6 C 6,3 C 58 % 1008,9 hPa 0,0 mm 8,3 km/h (2 Bft) W-SW 247 0 min -1,1 C 9,2 km/h (2 Bft)
29.03.2016 02:45 6,7 C 6,4 C 58 % 1008,9 hPa 0,0 mm 7,2 km/h (2 Bft) W-SW 247 0 min -1,0 C 6,0 km/h (2 Bft)
29.03.2016 02:50 6,5 C 6,3 C 58 % 1008,9 hPa 0,0 mm 6,9 km/h (2 Bft) W-SW 247 0 min -1,2 C 6,6 km/h (2 Bft)
29.03.2016 02:55 6,3 C 6,1 C 58 % 1008,9 hPa 0,0 mm 6,6 km/h (2 Bft) W-SW 247 0 min -1,3 C 8,0 km/h (2 Bft)
29.03.2016 03:00 6,1 C 5,9 C 58 % 1008,9 hPa 0,0 mm 6,6 km/h (2 Bft) W-SW 247 0 min -1,5 C 7,7 km/h (2 Bft)
29.03.2016 03:05 6,1 C 5,9 C 58 % 1008,9 hPa 0,0 mm 6,0 km/h (2 Bft) W-SW 247 0 min -1,5 C 8,3 km/h (2 Bft)
29.03.2016 03:10 6,0 C 5,7 C 59 % 1009,0 hPa 0,0 mm 6,3 km/h (2 Bft) W-SW 247 0 min -1,4 C 8,0 km/h (2 Bft)
29.03.2016 03:15 6,1 C 5,7 C 59 % 1009,0 hPa 0,0 mm 7,5 km/h (2 Bft) SW 225 0 min -1,3 C 8,9 km/h (2 Bft)
29.03.2016 03:20 6,5 C 6,0 C 58 % 1009,0 hPa 0,0 mm 8,3 km/h (2 Bft) W-SW 247 0 min -1,2 C 10,1 km/h (2 Bft)
29.03.2016 03:25 6,6 C 6,2 C 58 % 1009,0 hPa 0,0 mm 7,7 km/h (2 Bft) W-SW 247 0 min -1,1 C 7,5 km/h (2 Bft)
29.03.2016 03:30 6,8 C 6,4 C 57 % 1009,1 hPa 0,0 mm 7,7 km/h (2 Bft) W 270 0 min -1,1 C 11,3 km/h (2 Bft)
29.03.2016 03:35 7,0 C 6,5 C 57 % 1009,1 hPa 0,0 mm 8,6 km/h (2 Bft) W-SW 247 0 min -0,9 C 8,9 km/h (2 Bft)
29.03.2016 03:40 7,1 C 6,6 C 56 % 1009,1 hPa 0,0 mm 8,9 km/h (2 Bft) W-SW 247 0 min -1,1 C 14,3 km/h (3 Bft)
29.03.2016 03:45 6,8 C 6,5 C 57 % 1009,1 hPa 0,0 mm 8,6 km/h (2 Bft) W-SW 247 0 min -1,1 C 8,0 km/h (2 Bft)
29.03.2016 03:50 6,5 C 6,3 C 57 % 1009,2 hPa 0,0 mm 7,2 km/h (2 Bft) W 270 0 min -1,4 C 4,8 km/h (1 Bft)
29.03.2016 03:55 6,4 C 6,3 C 57 % 1009,2 hPa 0,0 mm 6,3 km/h (2 Bft) W-SW 247 0 min -1,5 C 8,0 km/h (2 Bft)
29.03.2016 04:00 6,5 C 6,3 C 57 % 1009,2 hPa 0,0 mm 6,6 km/h (2 Bft) W-SW 247 0 min -1,4 C 9,2 km/h (2 Bft)
29.03.2016 04:05 6,7 C 6,4 C 57 % 1009,2 hPa 0,0 mm 7,2 km/h (2 Bft) W-SW 247 0 min -1,2 C 8,9 km/h (2 Bft)
29.03.2016 04:10 6,9 C 6,5 C 57 % 1009,3 hPa 0,0 mm 7,7 km/h (2 Bft) O-SO 112 0 min -1,0 C 16,1 km/h (3 Bft)
29.03.2016 04:15 7,6 C 7,0 C 56 % 1009,3 hPa 0,0 mm 10,7 km/h (2 Bft) W 270 0 min -0,6 C 31,0 km/h (5 Bft)
29.03.2016 04:20 7,6 C 7,1 C 56 % 1009,3 hPa 0,0 mm 12,2 km/h (2 Bft) SW 225 0 min -0,6 C 11,0 km/h (2 Bft)
29.03.2016 04:25 7,9 C 7,4 C 55 % 1009,3 hPa 0,0 mm 14,0 km/h (3 Bft) SW 225 0 min -0,6 C 31,3 km/h (5 Bft)
29.03.2016 04:30 7,7 C 7,3 C 55 % 1009,3 hPa 0,0 mm 13,4 km/h (3 Bft) W-NW 292 0 min -0,8 C 8,0 km/h (2 Bft)
29.03.2016 04:35 7,7 C 7,3 C 55 % 1009,3 hPa 0,0 mm 11,6 km/h (2 Bft) W-SW 247 0 min -0,8 C 13,4 km/h (3 Bft)
29.03.2016 04:40 8,0 C 7,5 C 54 % 1009,3 hPa 0,0 mm 14,0 km/h (3 Bft) W-SW 247 0 min -0,7 C 22,9 km/h (4 Bft)
29.03.2016 04:45 7,9 C 7,4 C 54 % 1009,3 hPa 0,0 mm 14,3 km/h (3 Bft) SW 225 0 min -0,8 C 32,8 km/h (5 Bft)
29.03.2016 04:50 7,8 C 7,3 C 54 % 1009,4 hPa 0,0 mm 13,1 km/h (3 Bft) W-SW 247 0 min -0,9 C 14,9 km/h (3 Bft)
29.03.2016 04:55 7,7 C 7,3 C 54 % 1009,4 hPa 0,0 mm 11,0 km/h (2 Bft) W-SW 247 0 min -1,0 C 11,3 km/h (2 Bft)
29.03.2016 05:00 7,5 C 7,2 C 54 % 1009,4 hPa 0,0 mm 9,8 km/h (2 Bft) N-NW 337 0 min -1,2 C 12,2 km/h (2 Bft)
29.03.2016 05:05 7,6 C 7,3 C 54 % 1009,4 hPa 0,0 mm 9,8 km/h (2 Bft) W 270 0 min -1,1 C 8,3 km/h (2 Bft)
29.03.2016 05:10 7,7 C 7,3 C 54 % 1009,9 hPa 0,0 mm 11,3 km/h (2 Bft) W 270 0 min -1,0 C 19,7 km/h (3 Bft)
29.03.2016 05:15 8,0 C 7,6 C 53 % 1009,9 hPa 0,0 mm 15,5 km/h (3 Bft) W 270 0 min -1,0 C 35,8 km/h (5 Bft)
29.03.2016 05:20 8,0 C 7,6 C 54 % 1009,9 hPa 0,0 mm 19,4 km/h (3 Bft) W 270 0 min -0,7 C 35,2 km/h (5 Bft)
29.03.2016 05:25 7,8 C 7,4 C 55 % 1009,9 hPa 0,0 mm 20,3 km/h (4 Bft) W-NW 292 0 min -0,7 C 52,2 km/h (7 Bft)
29.03.2016 05:30 7,9 C 7,2 C 55 % 1010,2 hPa 0,0 mm 20,0 km/h (4 Bft) NW 315 0 min -0,6 C 11,0 km/h (2 Bft)
29.03.2016 05:33 7,9 C 7,2 C 55 % 1010,2 hPa 0,0 mm 20,0 km/h (4 Bft) NW 315 0 min -0,6 C 11,0 km/h (2 Bft)
29.03.2016 05:35 7,5 C 6,9 C 56 % 1010,2 hPa 0,0 mm 18,5 km/h (3 Bft) W 270 0 min -0,7 C 17,9 km/h (3 Bft)
29.03.2016 05:40 7,3 C 6,8 C 57 % 1010,2 hPa 0,0 mm 17,3 km/h (3 Bft) W-SW 247 0 min -0,6 C 21,8 km/h (4 Bft)
29.03.2016 05:45 6,9 C 6,6 C 59 % 1010,2 hPa 0,0 mm 14,3 km/h (3 Bft) W-SW 247 0 min -0,5 C 30,1 km/h (5 Bft)
29.03.2016 05:50 6,8 C 6,5 C 59 % 1010,2 hPa 0,0 mm 14,3 km/h (3 Bft) W-SW 247 0 min -0,6 C 11,3 km/h (2 Bft)
29.03.2016 05:55 6,4 C 5,8 C 59 % 1010,2 hPa 0,0 mm 13,7 km/h (3 Bft) W-NW 292 0 min -1,0 C 12,2 km/h (2 Bft)
29.03.2016 06:00 6,2 C 5,9 C 60 % 1010,2 hPa 0,0 mm 9,5 km/h (2 Bft) W 270 0 min -1,0 C 15,5 km/h (3 Bft)
29.03.2016 06:05 6,4 C 5,9 C 60 % 1010,2 hPa 0,0 mm 11,6 km/h (2 Bft) W-NW 292 0 min -0,8 C 23,8 km/h (4 Bft)
29.03.2016 06:10 6,7 C 6,2 C 62 % 1010,9 hPa 0,0 mm 14,9 km/h (3 Bft) SW 225 0 min -0,1 C 14,9 km/h (3 Bft)
29.03.2016 06:15 6,1 C 5,5 C 65 % 1010,9 hPa 0,0 mm 15,8 km/h (3 Bft) W-NW 292 0 min 0,0 C 29,5 km/h (5 Bft)
29.03.2016 06:20 5,4 C 4,5 C 67 % 1010,9 hPa 0,0 mm 12,8 km/h (3 Bft) W 270 0 min -0,2 C 9,2 km/h (2 Bft)
29.03.2016 06:25 4,8 C 4,2 C 69 % 1010,9 hPa 0,0 mm 6,9 km/h (2 Bft) W-SW 247 0 min -0,4 C 8,0 km/h (2 Bft)
29.03.2016 06:30 4,6 C 4,2 C 69 % 1010,5 hPa 0,0 mm 4,2 km/h (1 Bft) W-SW 247 0 min -0,6 C 4,8 km/h (1 Bft)
29.03.2016 06:35 4,6 C 4,1 C 71 % 1010,5 hPa 0,0 mm 4,5 km/h (1 Bft) W-SW 247 0 min -0,2 C 6,6 km/h (2 Bft)
29.03.2016 06:40 4,5 C 4,0 C 71 % 1010,5 hPa 0,0 mm 5,1 km/h (1 Bft) SW 225 0 min -0,3 C 6,3 km/h (2 Bft)
29.03.2016 06:45 4,4 C 3,9 C 72 % 1010,5 hPa 0,0 mm 4,8 km/h (1 Bft) W-SW 247 0 min -0,2 C 4,5 km/h (1 Bft)
29.03.2016 06:50 4,5 C 3,9 C 72 % 1010,2 hPa 0,0 mm 5,4 km/h (1 Bft) W-SW 247 0 min -0,1 C 6,6 km/h (2 Bft)
29.03.2016 06:55 4,3 C 3,8 C 72 % 1010,2 hPa 0,0 mm 4,5 km/h (1 Bft) SW 225 0 min -0,3 C 5,4 km/h (1 Bft)
29.03.2016 07:00 4,5 C 3,9 C 73 % 1010,2 hPa 0,0 mm 3,9 km/h (1 Bft) S-SW 202 0 min 0,1 C 7,7 km/h (2 Bft)
29.03.2016 07:05 4,4 C 3,9 C 72 % 1010,2 hPa 0,0 mm 5,1 km/h (1 Bft) W 270 0 min -0,2 C 9,5 km/h (2 Bft)
29.03.2016 07:10 5,0 C 4,3 C 71 % 1010,1 hPa 0,0 mm 7,2 km/h (2 Bft) SW 225 0 min 0,2 C 13,4 km/h (3 Bft)
29.03.2016 07:15 5,4 C 4,6 C 69 % 1010,1 hPa 0,0 mm 9,8 km/h (2 Bft) SW 225 0 min 0,2 C 6,9 km/h (2 Bft)
29.03.2016 07:20 5,6 C 4,9 C 68 % 1010,1 hPa 0,0 mm 10,1 km/h (2 Bft) SW 225 0 min 0,2 C 16,1 km/h (3 Bft)
29.03.2016 07:25 5,4 C 5,1 C 67 % 1010,1 hPa 0,0 mm 7,7 km/h (2 Bft) W 270 0 min -0,2 C 4,5 km/h (1 Bft)
29.03.2016 07:30 5,4 C 5,2 C 66 % 1010,4 hPa 0,0 mm 6,9 km/h (2 Bft) W-SW 247 0 min -0,4 C 8,3 km/h (2 Bft)
29.03.2016 07:35 5,2 C 5,2 C 65 % 1010,4 hPa 0,0 mm 4,5 km/h (1 Bft) W 270 0 min -0,8 C 0,0 km/h (0 Bft)
29.03.2016 07:40 5,2 C 5,2 C 66 % 1010,4 hPa 0,0 mm 5,4 km/h (1 Bft) NW 315 0 min -0,6 C 14,6 km/h (3 Bft)
29.03.2016 07:45 5,1 C 5,1 C 68 % 1010,4 hPa 0,0 mm 6,3 km/h (2 Bft) W-NW 292 0 min -0,3 C 6,9 km/h (2 Bft)
29.03.2016 07:50 5,4 C 5,4 C 69 % 1011,2 hPa 0,0 mm 6,3 km/h (2 Bft) W-NW 292 0 min 0,2 C 6,9 km/h (2 Bft)
29.03.2016 07:55 5,6 C 5,7 C 69 % 1011,2 hPa 0,0 mm 6,3 km/h (2 Bft) W-SW 247 0 min 0,4 C 10,1 km/h (2 Bft)
29.03.2016 08:00 5,7 C 5,7 C 69 % 1011,2 hPa 0,0 mm 7,2 km/h (2 Bft) W-SW 247 0 min 0,5 C 11,3 km/h (2 Bft)
29.03.2016 08:05 5,9 C 5,7 C 68 % 1011,2 hPa 0,0 mm 9,2 km/h (2 Bft) W-SW 247 0 min 0,5 C 9,8 km/h (2 Bft)
29.03.2016 08:10 6,0 C 5,8 C 67 % 1011,8 hPa 0,0 mm 10,1 km/h (2 Bft) SW 225 0 min 0,3 C 9,8 km/h (2 Bft)
29.03.2016 08:15 5,9 C 5,7 C 68 % 1011,8 hPa 0,0 mm 8,9 km/h (2 Bft) W-NW 292 0 min 0,5 C 5,7 km/h (1 Bft)
29.03.2016 08:20 6,0 C 6,0 C 67 % 1011,8 hPa 0,0 mm 8,0 km/h (2 Bft) W-SW 247 0 min 0,3 C 10,1 km/h (2 Bft)
29.03.2016 08:25 6,3 C 8,0 C 66 % 1011,8 hPa 0,0 mm 8,9 km/h (2 Bft) W-SW 247 0 min 0,4 C 9,8 km/h (2 Bft)
29.03.2016 08:30 6,5 C 9,3 C 66 % 1012,0 hPa 0,0 mm 10,1 km/h (2 Bft) NW 315 5 min 0,6 C 14,0 km/h (3 Bft)
29.03.2016 08:33 6,8 C 11,1 C 66 % 1012,0 hPa 0,0 mm 9,8 km/h (2 Bft) W-SW 247 3 min 0,9 C 0,0 km/h (0 Bft)
29.03.2016 08:34 6,8 C 11,1 C 66 % 1012,0 hPa 0,0 mm 9,8 km/h (2 Bft) W-SW 247 1 min 0,9 C 0,0 km/h (0 Bft)
29.03.2016 08:35 6,8 C 11,1 C 66 % 1012,0 hPa 0,0 mm 9,8 km/h (2 Bft) W-SW 247 1 min 0,9 C 0,0 km/h (0 Bft)
29.03.2016 08:40 6,9 C 12,1 C 67 % 1012,0 hPa 0,0 mm 9,8 km/h (2 Bft) W 270 5 min 1,2 C 11,9 km/h (2 Bft)
29.03.2016 08:45 6,6 C 9,0 C 68 % 1012,0 hPa 0,0 mm 12,2 km/h (2 Bft) W-SW 247 5 min 1,1 C 18,8 km/h (3 Bft)
29.03.2016 08:50 6,7 C 8,5 C 67 % 1012,1 hPa 0,0 mm 14,9 km/h (3 Bft) W-SW 247 0 min 1,0 C 14,6 km/h (3 Bft)
29.03.2016 08:55 7,1 C 9,1 C 67 % 1012,1 hPa 0,0 mm 14,3 km/h (3 Bft) NW 315 0 min 1,4 C 13,4 km/h (3 Bft)
29.03.2016 09:00 7,5 C 10,6 C 66 % 1012,1 hPa 0,0 mm 12,2 km/h (2 Bft) W-SW 247 5 min 1,6 C 14,3 km/h (3 Bft)
29.03.2016 09:05 7,9 C 11,6 C 66 % 1012,1 hPa 0,0 mm 11,3 km/h (2 Bft) W 270 5 min 1,9 C 18,5 km/h (3 Bft)
29.03.2016 09:10 8,0 C 11,8 C 65 % 1012,4 hPa 0,0 mm 11,9 km/h (2 Bft) W 270 5 min 1,8 C 8,0 km/h (2 Bft)
29.03.2016 09:15 8,2 C 11,9 C 64 % 1012,4 hPa 0,0 mm 13,1 km/h (3 Bft) NW 315 5 min 1,8 C 9,5 km/h (2 Bft)
29.03.2016 09:20 8,6 C 12,5 C 65 % 1012,4 hPa 0,0 mm 12,5 km/h (3 Bft) NW 315 5 min 2,4 C 14,9 km/h (3 Bft)
29.03.2016 09:25 8,2 C 11,2 C 64 % 1012,4 hPa 0,0 mm 12,8 km/h (3 Bft) W 270 5 min 1,8 C 11,9 km/h (2 Bft)
29.03.2016 09:30 8,1 C 10,4 C 64 % 1013,2 hPa 0,0 mm 12,8 km/h (3 Bft) W 270 0 min 1,7 C 12,2 km/h (2 Bft)
29.03.2016 09:35 7,7 C 8,5 C 65 % 1013,2 hPa 0,0 mm 11,9 km/h (2 Bft) W-SW 247 0 min 1,5 C 19,4 km/h (3 Bft)
29.03.2016 09:40 6,7 C 7,1 C 66 % 1013,2 hPa 0,0 mm 15,8 km/h (3 Bft) SO 135 0 min 0,8 C 23,8 km/h (4 Bft)
29.03.2016 09:45 6,2 C 5,7 C 68 % 1013,2 hPa 0,0 mm 22,1 km/h (4 Bft) W-NW 292 0 min 0,7 C 17,3 km/h (3 Bft)
29.03.2016 09:50 6,1 C 5,3 C 70 % 1013,6 hPa 0,0 mm 20,6 km/h (4 Bft) W 270 0 min 1,0 C 14,0 km/h (3 Bft)
29.03.2016 09:55 6,3 C 5,9 C 68 % 1013,6 hPa 0,0 mm 14,3 km/h (3 Bft) W 270 0 min 0,8 C 23,2 km/h (4 Bft)
29.03.2016 10:00 6,9 C 7,5 C 69 % 1013,6 hPa 0,0 mm 13,1 km/h (3 Bft) W 270 0 min 1,6 C 15,2 km/h (3 Bft)
29.03.2016 10:05 7,3 C 8,3 C 69 % 1013,6 hPa 0,0 mm 18,2 km/h (3 Bft) W 270 0 min 2,0 C 37,6 km/h (5 Bft)
29.03.2016 10:10 7,5 C 9,3 C 69 % 1013,5 hPa 0,0 mm 19,4 km/h (3 Bft) W 270 0 min 2,2 C 24,7 km/h (4 Bft)
29.03.2016 10:15 7,3 C 9,3 C 68 % 1013,5 hPa 0,0 mm 18,5 km/h (3 Bft) W-NW 292 0 min 1,8 C 31,0 km/h (5 Bft)
29.03.2016 10:20 7,1 C 8,7 C 68 % 1013,5 hPa 0,0 mm 17,3 km/h (3 Bft) NW 315 0 min 1,6 C 26,5 km/h (4 Bft)
29.03.2016 10:25 7,0 C 8,1 C 69 % 1013,5 hPa 0,0 mm 14,9 km/h (3 Bft) W 270 0 min 1,7 C 19,7 km/h (3 Bft)
29.03.2016 10:30 7,0 C 7,8 C 69 % 1014,0 hPa 0,0 mm 11,6 km/h (2 Bft) W-NW 292 0 min 1,7 C 16,4 km/h (3 Bft)
29.03.2016 10:35 7,7 C 9,7 C 69 % 1014,0 hPa 0,0 mm 14,0 km/h (3 Bft) W-NW 292 0 min 2,4 C 17,0 km/h (3 Bft)
29.03.2016 10:40 7,7 C 10,2 C 68 % 1014,0 hPa 0,0 mm 16,7 km/h (3 Bft) W 270 0 min 2,2 C 19,4 km/h (3 Bft)
29.03.2016 10:45 7,7 C 10,2 C 68 % 1014,0 hPa 0,0 mm 15,2 km/h (3 Bft) O 90 0 min 2,2 C 15,2 km/h (3 Bft)
29.03.2016 10:50 7,6 C 10,2 C 68 % 1014,4 hPa 0,0 mm 15,8 km/h (3 Bft) NW 315 0 min 2,1 C 30,4 km/h (5 Bft)
29.03.2016 10:55 7,7 C 9,6 C 68 % 1014,4 hPa 0,0 mm 18,2 km/h (3 Bft) W 270 0 min 2,2 C 27,1 km/h (4 Bft)
29.03.2016 11:00 8,1 C 9,8 C 68 % 1014,4 hPa 0,0 mm 16,1 km/h (3 Bft) W-NW 292 0 min 2,6 C 17,0 km/h (3 Bft)
29.03.2016 11:05 8,5 C 12,3 C 67 % 1014,4 hPa 0,0 mm 12,5 km/h (3 Bft) W-SW 247 0 min 2,7 C 14,3 km/h (3 Bft)
29.03.2016 11:10 8,7 C 13,1 C 67 % 1014,4 hPa 0,0 mm 11,9 km/h (2 Bft) W-SW 247 5 min 2,9 C 14,3 km/h (3 Bft)
29.03.2016 11:15 9,5 C 14,8 C 67 % 1014,4 hPa 0,0 mm 9,2 km/h (2 Bft) W 270 5 min 3,7 C 11,6 km/h (2 Bft)
29.03.2016 11:20 9,4 C 14,0 C 66 % 1014,4 hPa 0,0 mm 8,6 km/h (2 Bft) W-SW 247 5 min 3,4 C 13,4 km/h (3 Bft)
29.03.2016 11:25 9,7 C 14,1 C 66 % 1014,4 hPa 0,0 mm 12,8 km/h (3 Bft) W 270 5 min 3,7 C 14,3 km/h (3 Bft)
29.03.2016 11:30 10,2 C 14,7 C 65 % 1014,4 hPa 0,0 mm 13,1 km/h (3 Bft) W 270 5 min 3,9 C 15,8 km/h (3 Bft)
29.03.2016 11:33 9,4 C 13,0 C 64 % 1014,4 hPa 0,0 mm 13,1 km/h (3 Bft) W 270 3 min 2,9 C 20,9 km/h (4 Bft)
29.03.2016 11:35 9,4 C 13,0 C 64 % 1014,4 hPa 0,0 mm 13,1 km/h (3 Bft) W 270 2 min 2,9 C 20,9 km/h (4 Bft)
29.03.2016 11:40 8,7 C 10,3 C 65 % 1014,4 hPa 0,0 mm 13,4 km/h (3 Bft) W-NW 292 0 min 2,5 C 14,0 km/h (3 Bft)
29.03.2016 11:45 7,5 C 7,1 C 66 % 1014,4 hPa 0,7 mm 13,7 km/h (3 Bft) W 270 0 min 1,6 C 8,3 km/h (2 Bft)
29.03.2016 11:50 7,1 C 6,5 C 68 % 1015,1 hPa 0,7 mm 12,5 km/h (3 Bft) W 270 0 min 1,6 C 22,7 km/h (4 Bft)
29.03.2016 11:55 6,6 C 5,8 C 72 % 1015,1 hPa 0,0 mm 12,2 km/h (2 Bft) W 270 0 min 1,9 C 15,2 km/h (3 Bft)
29.03.2016 12:00 7,1 C 6,8 C 70 % 1015,1 hPa 0,0 mm 13,7 km/h (3 Bft) W 270 0 min 2,0 C 19,1 km/h (3 Bft)
29.03.2016 12:05 7,6 C 7,9 C 72 % 1015,1 hPa 0,0 mm 16,4 km/h (3 Bft) W-SW 247 0 min 2,9 C 20,6 km/h (4 Bft)
29.03.2016 12:10 8,0 C 8,7 C 72 % 1014,4 hPa 0,0 mm 15,8 km/h (3 Bft) W-SW 247 0 min 3,3 C 11,9 km/h (2 Bft)
29.03.2016 12:15 8,4 C 10,0 C 73 % 1014,4 hPa 0,0 mm 11,9 km/h (2 Bft) NW 315 0 min 3,8 C 8,9 km/h (2 Bft)
29.03.2016 12:20 8,7 C 10,9 C 73 % 1014,4 hPa 0,0 mm 12,2 km/h (2 Bft) W 270 0 min 4,1 C 16,1 km/h (3 Bft)
29.03.2016 12:25 9,0 C 11,9 C 72 % 1014,4 hPa 0,0 mm 12,8 km/h (3 Bft) SW 225 0 min 4,2 C 8,3 km/h (2 Bft)
29.03.2016 12:30 9,4 C 12,9 C 72 % 1014,8 hPa 0,0 mm 13,1 km/h (3 Bft) S-SW 202 0 min 4,6 C 18,2 km/h (3 Bft)
29.03.2016 12:35 9,4 C 13,7 C 70 % 1014,8 hPa 0,0 mm 13,4 km/h (3 Bft) NW 315 5 min 4,2 C 29,5 km/h (5 Bft)
29.03.2016 12:40 9,2 C 13,2 C 70 % 1014,8 hPa 0,0 mm 13,7 km/h (3 Bft) W-NW 292 5 min 4,0 C 21,5 km/h (4 Bft)
29.03.2016 12:45 8,7 C 11,8 C 69 % 1014,8 hPa 0,0 mm 13,1 km/h (3 Bft) W 270 5 min 3,3 C 11,9 km/h (2 Bft)
29.03.2016 12:50 8,6 C 10,7 C 70 % 1015,1 hPa 0,0 mm 12,5 km/h (3 Bft) NW 315 0 min 3,4 C 16,1 km/h (3 Bft)
29.03.2016 12:55 8,6 C 10,6 C 69 % 1015,1 hPa 0,0 mm 11,3 km/h (2 Bft) W 270 0 min 3,2 C 12,2 km/h (2 Bft)
29.03.2016 13:00 9,0 C 11,0 C 69 % 1015,1 hPa 0,0 mm 10,1 km/h (2 Bft) W-SW 247 0 min 3,6 C 13,1 km/h (3 Bft)
29.03.2016 13:05 10,0 C 12,0 C 69 % 1015,1 hPa 0,0 mm 9,2 km/h (2 Bft) N-NO 22 0 min 4,6 C 15,8 km/h (3 Bft)
29.03.2016 13:10 10,2 C 11,7 C 68 % 1014,6 hPa 0,0 mm 12,8 km/h (3 Bft) W 270 0 min 4,6 C 22,9 km/h (4 Bft)
29.03.2016 13:15 10,6 C 12,0 C 66 % 1014,6 hPa 0,0 mm 16,1 km/h (3 Bft) W 270 0 min 4,5 C 19,7 km/h (3 Bft)
29.03.2016 13:20 10,6 C 12,1 C 65 % 1014,6 hPa 0,0 mm 16,4 km/h (3 Bft) O 90 0 min 4,3 C 34,0 km/h (5 Bft)
29.03.2016 13:25 10,5 C 12,7 C 64 % 1014,6 hPa 0,0 mm 15,5 km/h (3 Bft) W 270 0 min 4,0 C 18,8 km/h (3 Bft)
29.03.2016 13:30 10,0 C 12,6 C 64 % 1014,7 hPa 0,0 mm 14,9 km/h (3 Bft) S-SW 202 0 min 3,5 C 14,9 km/h (3 Bft)
29.03.2016 13:35 10,3 C 12,4 C 64 % 1014,7 hPa 0,0 mm 14,0 km/h (3 Bft) W 270 0 min 3,8 C 18,2 km/h (3 Bft)
29.03.2016 13:40 10,4 C 13,0 C 63 % 1014,7 hPa 0,0 mm 15,2 km/h (3 Bft) NW 315 0 min 3,7 C 26,2 km/h (4 Bft)
29.03.2016 13:45 10,2 C 13,0 C 62 % 1014,7 hPa 0,0 mm 16,4 km/h (3 Bft) NW 315 0 min 3,3 C 18,8 km/h (3 Bft)
29.03.2016 13:50 10,5 C 13,1 C 61 % 1014,5 hPa 0,0 mm 16,4 km/h (3 Bft) SW 225 0 min 3,3 C 27,7 km/h (4 Bft)
29.03.2016 13:55 10,5 C 13,0 C 59 % 1014,5 hPa 0,0 mm 18,5 km/h (3 Bft) W-SW 247 0 min 2,8 C 28,0 km/h (4 Bft)
29.03.2016 14:00 10,8 C 13,1 C 59 % 1014,5 hPa 0,0 mm 21,5 km/h (4 Bft) W 270 0 min 3,1 C 28,6 km/h (4 Bft)
29.03.2016 14:05 11,3 C 14,0 C 59 % 1014,5 hPa 0,0 mm 18,8 km/h (3 Bft) SW 225 0 min 3,6 C 22,1 km/h (4 Bft)
29.03.2016 14:10 11,6 C 15,1 C 59 % 1014,2 hPa 0,0 mm 15,8 km/h (3 Bft) W-SW 247 0 min 3,9 C 20,6 km/h (4 Bft)
29.03.2016 14:15 11,5 C 15,4 C 58 % 1014,2 hPa 0,7 mm 17,6 km/h (3 Bft) W 270 5 min 3,5 C 21,2 km/h (4 Bft)
29.03.2016 14:20 11,1 C 14,4 C 58 % 1014,2 hPa 0,0 mm 18,8 km/h (3 Bft) W 270 5 min 3,2 C 24,1 km/h (4 Bft)
29.03.2016 14:25 11,1 C 13,8 C 58 % 1014,2 hPa 0,0 mm 17,3 km/h (3 Bft) W-SW 247 0 min 3,2 C 10,1 km/h (2 Bft)
29.03.2016 14:30 11,1 C 13,6 C 58 % 1014,2 hPa 0,0 mm 16,4 km/h (3 Bft) W 270 0 min 3,2 C 10,4 km/h (2 Bft)
29.03.2016 14:33 11,3 C 13,4 C 58 % 1014,2 hPa 0,0 mm 16,4 km/h (3 Bft) W 270 0 min 3,3 C 23,2 km/h (4 Bft)
29.03.2016 14:36 11,3 C 13,4 C 58 % 1014,2 hPa 0,0 mm 16,4 km/h (3 Bft) W 270 0 min 3,3 C 23,2 km/h (4 Bft)
29.03.2016 14:40 11,4 C 13,5 C 58 % 1014,2 hPa 0,0 mm 17,6 km/h (3 Bft) SW 225 0 min 3,4 C 22,4 km/h (4 Bft)
29.03.2016 14:45 11,1 C 13,6 C 57 % 1014,2 hPa 0,0 mm 18,5 km/h (3 Bft) SW 225 0 min 2,9 C 11,9 km/h (2 Bft)
29.03.2016 14:50 11,0 C 13,1 C 57 % 1014,2 hPa 0,0 mm 17,3 km/h (3 Bft) SW 225 0 min 2,8 C 19,7 km/h (3 Bft)
29.03.2016 14:55 11,3 C 13,3 C 58 % 1014,2 hPa 0,0 mm 17,9 km/h (3 Bft) W-NW 292 0 min 3,3 C 27,7 km/h (4 Bft)
29.03.2016 15:00 11,5 C 13,9 C 57 % 1014,2 hPa 0,0 mm 18,5 km/h (3 Bft) W-SW 247 0 min 3,3 C 42,9 km/h (6 Bft)
29.03.2016 15:05 11,5 C 13,9 C 57 % 1014,2 hPa 0,0 mm 20,6 km/h (4 Bft) W 270 0 min 3,3 C 26,5 km/h (4 Bft)
29.03.2016 15:10 11,6 C 13,9 C 57 % 1013,9 hPa 0,0 mm 20,6 km/h (4 Bft) W 270 0 min 3,4 C 33,4 km/h (5 Bft)
29.03.2016 15:15 11,6 C 13,7 C 56 % 1013,9 hPa 0,0 mm 19,4 km/h (3 Bft) N-NW 337 0 min 3,1 C 39,6 km/h (6 Bft)
29.03.2016 15:20 11,7 C 13,7 C 56 % 1013,9 hPa 0,0 mm 20,3 km/h (4 Bft) W 270 0 min 3,2 C 17,6 km/h (3 Bft)
29.03.2016 15:25 11,3 C 13,3 C 56 % 1013,9 hPa 0,0 mm 18,2 km/h (3 Bft) W-SW 247 0 min 2,8 C 9,8 km/h (2 Bft)
29.03.2016 15:30 11,3 C 12,8 C 56 % 1013,6 hPa 0,0 mm 16,7 km/h (3 Bft) W-NW 292 0 min 2,8 C 27,1 km/h (4 Bft)
29.03.2016 15:35 11,4 C 12,7 C 56 % 1013,6 hPa 0,0 mm 17,6 km/h (3 Bft) W 270 0 min 2,9 C 14,9 km/h (3 Bft)
29.03.2016 15:40 11,7 C 13,1 C 56 % 1013,6 hPa 0,0 mm 19,1 km/h (3 Bft) W 270 0 min 3,2 C 21,8 km/h (4 Bft)
29.03.2016 15:45 11,8 C 13,9 C 55 % 1013,6 hPa 0,0 mm 17,9 km/h (3 Bft) SW 225 0 min 3,1 C 18,8 km/h (3 Bft)
29.03.2016 15:50 12,0 C 14,5 C 55 % 1013,6 hPa 0,0 mm 17,3 km/h (3 Bft) W 270 0 min 3,2 C 27,4 km/h (4 Bft)
29.03.2016 15:55 12,1 C 14,8 C 55 % 1013,6 hPa 0,0 mm 15,5 km/h (3 Bft) W-NW 292 0 min 3,3 C 10,1 km/h (2 Bft)
29.03.2016 16:00 12,2 C 14,8 C 55 % 1013,6 hPa 0,0 mm 15,8 km/h (3 Bft) W 270 0 min 3,4 C 22,1 km/h (4 Bft)
29.03.2016 16:05 11,7 C 13,9 C 55 % 1013,6 hPa 0,0 mm 15,5 km/h (3 Bft) W-NW 292 0 min 3,0 C 10,1 km/h (2 Bft)
29.03.2016 16:10 11,5 C 13,0 C 54 % 1013,4 hPa 0,0 mm 17,3 km/h (3 Bft) S-SW 202 0 min 2,5 C 12,8 km/h (3 Bft)
29.03.2016 16:15 11,5 C 12,7 C 54 % 1013,4 hPa 0,0 mm 15,2 km/h (3 Bft) SW 225 0 min 2,5 C 11,9 km/h (2 Bft)
29.03.2016 16:20 11,8 C 13,5 C 55 % 1013,4 hPa 0,0 mm 13,7 km/h (3 Bft) W-SW 247 0 min 3,1 C 18,5 km/h (3 Bft)
29.03.2016 16:25 12,2 C 14,3 C 55 % 1013,4 hPa 0,0 mm 14,0 km/h (3 Bft) W 270 0 min 3,4 C 14,3 km/h (3 Bft)
29.03.2016 16:30 12,3 C 14,6 C 54 % 1013,2 hPa 0,0 mm 15,5 km/h (3 Bft) SW 225 0 min 3,3 C 11,6 km/h (2 Bft)
29.03.2016 16:35 12,4 C 14,8 C 53 % 1013,2 hPa 0,0 mm 16,1 km/h (3 Bft) W-NW 292 0 min 3,1 C 21,5 km/h (4 Bft)
29.03.2016 16:40 12,3 C 14,9 C 53 % 1013,2 hPa 0,0 mm 16,1 km/h (3 Bft) W 270 0 min 3,0 C 20,3 km/h (4 Bft)
29.03.2016 16:45 12,0 C 14,8 C 53 % 1013,2 hPa 0,0 mm 17,0 km/h (3 Bft) NW 315 5 min 2,7 C 17,6 km/h (3 Bft)
29.03.2016 16:50 12,0 C 14,5 C 54 % 1013,2 hPa 0,0 mm 16,4 km/h (3 Bft) W 270 0 min 3,0 C 17,9 km/h (3 Bft)
29.03.2016 16:55 11,8 C 13,9 C 53 % 1013,2 hPa 0,0 mm 17,9 km/h (3 Bft) W 270 0 min 2,5 C 16,4 km/h (3 Bft)
29.03.2016 17:00 11,6 C 13,1 C 54 % 1013,2 hPa 0,0 mm 17,0 km/h (3 Bft) W 270 0 min 2,6 C 25,3 km/h (4 Bft)
29.03.2016 17:05 11,5 C 12,4 C 55 % 1013,2 hPa 0,0 mm 12,5 km/h (3 Bft) SW 225 0 min 2,8 C 6,0 km/h (2 Bft)
29.03.2016 17:10 11,5 C 12,5 C 55 % 1013,1 hPa 0,0 mm 11,6 km/h (2 Bft) W-NW 292 0 min 2,8 C 11,6 km/h (2 Bft)
29.03.2016 17:15 11,7 C 13,1 C 55 % 1013,1 hPa 0,0 mm 10,1 km/h (2 Bft) SW 225 0 min 3,0 C 16,7 km/h (3 Bft)
29.03.2016 17:20 11,7 C 12,9 C 54 % 1013,1 hPa 0,0 mm 11,6 km/h (2 Bft) W-SW 247 0 min 2,7 C 19,1 km/h (3 Bft)
29.03.2016 17:25 11,9 C 13,2 C 54 % 1013,1 hPa 0,0 mm 11,0 km/h (2 Bft) W 270 0 min 2,9 C 16,4 km/h (3 Bft)
29.03.2016 17:30 11,9 C 13,1 C 54 % 1012,9 hPa 0,0 mm 11,3 km/h (2 Bft) NO 45 0 min 2,9 C 12,2 km/h (2 Bft)
29.03.2016 17:35 11,7 C 12,5 C 54 % 1012,9 hPa 0,0 mm 11,9 km/h (2 Bft) W-SW 247 0 min 2,7 C 7,2 km/h (2 Bft)
29.03.2016 17:37 11,7 C 12,5 C 54 % 1012,9 hPa 0,0 mm 11,9 km/h (2 Bft) W-SW 247 0 min 2,7 C 7,2 km/h (2 Bft)
29.03.2016 17:40 11,6 C 12,1 C 54 % 1012,9 hPa 0,0 mm 11,9 km/h (2 Bft) S 180 0 min 2,6 C 16,1 km/h (3 Bft)
29.03.2016 17:45 11,5 C 11,9 C 55 % 1012,9 hPa 0,0 mm 11,6 km/h (2 Bft) W 270 0 min 2,8 C 9,8 km/h (2 Bft)
29.03.2016 17:50 11,4 C 12,1 C 55 % 1013,0 hPa 0,0 mm 10,7 km/h (2 Bft) W-SW 247 0 min 2,7 C 11,3 km/h (2 Bft)
29.03.2016 17:55 11,3 C 11,9 C 55 % 1013,0 hPa 0,0 mm 10,4 km/h (2 Bft) SW 225 0 min 2,6 C 10,1 km/h (2 Bft)
29.03.2016 18:00 11,1 C 11,8 C 55 % 1013,0 hPa 0,0 mm 9,8 km/h (2 Bft) W 270 0 min 2,4 C 15,5 km/h (3 Bft)
29.03.2016 18:05 11,3 C 12,1 C 55 % 1013,0 hPa 0,0 mm 8,0 km/h (2 Bft) W-SW 247 0 min 2,6 C 11,9 km/h (2 Bft)
29.03.2016 18:10 11,1 C 12,1 C 55 % 1013,2 hPa 0,0 mm 8,0 km/h (2 Bft) SW 225 0 min 2,4 C 4,5 km/h (1 Bft)
29.03.2016 18:15 11,1 C 11,8 C 55 % 1013,2 hPa 0,0 mm 9,2 km/h (2 Bft) W-SW 247 0 min 2,4 C 16,4 km/h (3 Bft)
29.03.2016 18:20 10,8 C 11,6 C 55 % 1013,2 hPa 0,0 mm 8,6 km/h (2 Bft) SW 225 0 min 2,1 C 7,7 km/h (2 Bft)
29.03.2016 18:25 10,7 C 11,2 C 56 % 1013,2 hPa 0,0 mm 7,5 km/h (2 Bft) W-SW 247 0 min 2,3 C 14,3 km/h (3 Bft)
29.03.2016 18:30 10,6 C 11,1 C 56 % 1013,1 hPa 0,0 mm 7,2 km/h (2 Bft) N 360 0 min 2,2 C 6,0 km/h (2 Bft)
29.03.2016 18:35 10,3 C 10,8 C 56 % 1013,1 hPa 0,0 mm 7,2 km/h (2 Bft) W-SW 247 0 min 1,9 C 5,7 km/h (1 Bft)
29.03.2016 18:40 10,1 C 10,5 C 56 % 1013,1 hPa 0,0 mm 6,3 km/h (2 Bft) W-SW 247 0 min 1,7 C 7,7 km/h (2 Bft)
29.03.2016 18:45 10,0 C 10,2 C 56 % 1013,1 hPa 0,0 mm 6,3 km/h (2 Bft) W 270 0 min 1,6 C 6,6 km/h (2 Bft)
29.03.2016 18:50 9,9 C 10,0 C 57 % 1013,1 hPa 0,0 mm 6,6 km/h (2 Bft) SW 225 0 min 1,8 C 8,0 km/h (2 Bft)
29.03.2016 18:55 9,8 C 9,8 C 57 % 1013,1 hPa 0,0 mm 5,7 km/h (1 Bft) S 180 0 min 1,7 C 4,8 km/h (1 Bft)
29.03.2016 19:00 9,7 C 9,7 C 57 % 1013,1 hPa 0,0 mm 5,7 km/h (1 Bft) W-SW 247 0 min 1,6 C 6,6 km/h (2 Bft)
29.03.2016 19:05 9,6 C 9,6 C 58 % 1013,1 hPa 0,0 mm 6,0 km/h (2 Bft) SW 225 0 min 1,8 C 8,0 km/h (2 Bft)
29.03.2016 19:10 9,5 C 9,4 C 58 % 1012,9 hPa 0,0 mm 6,3 km/h (2 Bft) SW 225 0 min 1,7 C 6,9 km/h (2 Bft)
29.03.2016 19:15 9,1 C 9,1 C 58 % 1012,9 hPa 0,0 mm 5,4 km/h (1 Bft) O-NO 67 0 min 1,3 C 0,0 km/h (0 Bft)
29.03.2016 19:20 8,9 C 8,9 C 58 % 1012,9 hPa 0,0 mm 3,6 km/h (1 Bft) SW 225 0 min 1,1 C 6,0 km/h (2 Bft)
29.03.2016 19:25 8,6 C 8,5 C 59 % 1012,9 hPa 0,0 mm 1,8 km/h (1 Bft) W-NW 292 0 min 1,0 C 0,0 km/h (0 Bft)
29.03.2016 19:30 8,4 C 8,3 C 59 % 1012,8 hPa 0,0 mm 2,1 km/h (1 Bft) SW 225 0 min 0,9 C 0,0 km/h (0 Bft)
29.03.2016 19:35 8,2 C 8,0 C 59 % 1012,8 hPa 0,0 mm 0,3 km/h (0 Bft) SO 135 0 min 0,7 C 0,0 km/h (0 Bft)
29.03.2016 19:40 8,0 C 7,8 C 60 % 1012,8 hPa 0,0 mm 0,0 km/h (0 Bft) S 180 0 min 0,7 C 0,0 km/h (0 Bft)
29.03.2016 19:45 7,9 C 7,6 C 61 % 1012,8 hPa 0,0 mm 0,0 km/h (0 Bft) S-SO 157 0 min 0,9 C 0,0 km/h (0 Bft)
29.03.2016 19:50 7,8 C 7,5 C 61 % 1012,7 hPa 0,0 mm 0,3 km/h (0 Bft) SW 225 0 min 0,8 C 3,9 km/h (1 Bft)
29.03.2016 19:55 7,7 C 7,5 C 62 % 1012,7 hPa 0,0 mm 0,9 km/h (0 Bft) SW 225 0 min 0,9 C 0,0 km/h (0 Bft)
29.03.2016 20:00 7,3 C 7,2 C 62 % 1012,7 hPa 0,0 mm 0,9 km/h (0 Bft) O 90 0 min 0,5 C 0,0 km/h (0 Bft)
29.03.2016 20:05 7,1 C 7,1 C 63 % 1012,7 hPa 0,0 mm 0,0 km/h (0 Bft) N-NW 337 0 min 0,5 C 0,0 km/h (0 Bft)
29.03.2016 20:10 7,2 C 7,1 C 63 % 1012,9 hPa 0,0 mm 0,0 km/h (0 Bft) N 360 0 min 0,6 C 0,0 km/h (0 Bft)
29.03.2016 20:15 7,4 C 7,3 C 64 % 1012,9 hPa 0,0 mm 1,2 km/h (1 Bft) W 270 0 min 1,0 C 9,5 km/h (2 Bft)
29.03.2016 20:20 7,7 C 7,5 C 64 % 1012,9 hPa 0,0 mm 1,8 km/h (1 Bft) SW 225 0 min 1,3 C 5,4 km/h (1 Bft)
29.03.2016 20:25 8,1 C 8,0 C 63 % 1012,9 hPa 0,0 mm 3,0 km/h (1 Bft) W-SW 247 0 min 1,5 C 4,2 km/h (1 Bft)
29.03.2016 20:30 8,1 C 8,0 C 63 % 1013,0 hPa 0,0 mm 3,3 km/h (1 Bft) W-SW 247 0 min 1,5 C 6,6 km/h (2 Bft)
29.03.2016 20:35 8,1 C 8,0 C 62 % 1013,0 hPa 0,0 mm 4,2 km/h (1 Bft) SW 225 0 min 1,3 C 5,7 km/h (1 Bft)
29.03.2016 20:38 8,1 C 8,0 C 62 % 1013,0 hPa 0,0 mm 4,2 km/h (1 Bft) SW 225 0 min 1,3 C 5,7 km/h (1 Bft)
29.03.2016 20:40 7,9 C 7,9 C 63 % 1013,0 hPa 0,0 mm 4,8 km/h (1 Bft) N-NO 22 0 min 1,3 C 7,2 km/h (2 Bft)
29.03.2016 20:45 7,9 C 7,8 C 63 % 1013,0 hPa 0,0 mm 5,4 km/h (1 Bft) S-SW 202 0 min 1,3 C 10,4 km/h (2 Bft)
29.03.2016 20:50 7,9 C 7,8 C 64 % 1013,2 hPa 0,0 mm 6,9 km/h (2 Bft) S 180 0 min 1,5 C 8,0 km/h (2 Bft)
29.03.2016 20:55 7,8 C 7,8 C 64 % 1013,2 hPa 0,0 mm 7,2 km/h (2 Bft) S 180 0 min 1,4 C 7,5 km/h (2 Bft)
29.03.2016 21:00 7,8 C 7,8 C 65 % 1013,2 hPa 0,0 mm 7,2 km/h (2 Bft) S-SW 202 0 min 1,6 C 7,5 km/h (2 Bft)
29.03.2016 21:05 7,7 C 7,6 C 65 % 1013,2 hPa 0,0 mm 7,7 km/h (2 Bft) S 180 0 min 1,5 C 11,0 km/h (2 Bft)
29.03.2016 21:10 7,6 C 7,5 C 65 % 1013,6 hPa 0,0 mm 7,7 km/h (2 Bft) S-SW 202 0 min 1,5 C 6,9 km/h (2 Bft)
29.03.2016 21:15 7,5 C 7,5 C 65 % 1013,6 hPa 0,0 mm 6,6 km/h (2 Bft) W 270 0 min 1,4 C 3,0 km/h (1 Bft)
29.03.2016 21:20 7,3 C 7,3 C 65 % 1013,6 hPa 0,0 mm 5,4 km/h (1 Bft) W-SW 247 0 min 1,2 C 3,6 km/h (1 Bft)
29.03.2016 21:25 7,2 C 7,1 C 65 % 1013,6 hPa 0,0 mm 4,5 km/h (1 Bft) W-SW 247 0 min 1,1 C 3,0 km/h (1 Bft)
29.03.2016 21:30 7,3 C 7,1 C 65 % 1013,9 hPa 0,0 mm 5,1 km/h (1 Bft) W 270 0 min 1,2 C 9,8 km/h (2 Bft)
29.03.2016 21:35 7,2 C 7,1 C 65 % 1013,9 hPa 0,0 mm 6,6 km/h (2 Bft) W-NW 292 0 min 1,1 C 12,2 km/h (2 Bft)
29.03.2016 21:40 7,5 C 7,2 C 66 % 1013,9 hPa 0,0 mm 7,5 km/h (2 Bft) NW 315 0 min 1,6 C 10,7 km/h (2 Bft)
29.03.2016 21:45 7,9 C 7,7 C 66 % 1013,9 hPa 0,0 mm 8,0 km/h (2 Bft) W 270 0 min 1,9 C 10,7 km/h (2 Bft)
29.03.2016 21:50 7,8 C 7,6 C 66 % 1014,2 hPa 0,0 mm 7,7 km/h (2 Bft) W-NW 292 0 min 1,9 C 8,6 km/h (2 Bft)
29.03.2016 21:55 7,9 C 7,7 C 66 % 1014,2 hPa 0,0 mm 8,9 km/h (2 Bft) W 270 0 min 1,9 C 20,9 km/h (4 Bft)
29.03.2016 22:00 8,1 C 7,8 C 65 % 1014,2 hPa 0,0 mm 10,1 km/h (2 Bft) NW 315 0 min 1,9 C 13,1 km/h (3 Bft)
29.03.2016 22:05 8,0 C 7,6 C 66 % 1014,2 hPa 0,0 mm 11,6 km/h (2 Bft) W 270 0 min 2,0 C 18,8 km/h (3 Bft)
29.03.2016 22:10 8,0 C 7,6 C 66 % 1014,4 hPa 0,0 mm 12,2 km/h (2 Bft) W-NW 292 0 min 2,0 C 14,3 km/h (3 Bft)
29.03.2016 22:15 7,9 C 7,5 C 67 % 1014,4 hPa 0,0 mm 12,5 km/h (3 Bft) W 270 0 min 2,2 C 12,5 km/h (3 Bft)
29.03.2016 22:20 7,7 C 7,4 C 67 % 1014,4 hPa 0,0 mm 11,3 km/h (2 Bft) W-SW 247 0 min 2,0 C 12,5 km/h (3 Bft)
29.03.2016 22:25 7,4 C 7,1 C 68 % 1014,4 hPa 0,0 mm 10,1 km/h (2 Bft) W 270 0 min 1,9 C 10,1 km/h (2 Bft)
29.03.2016 22:30 7,2 C 6,9 C 67 % 1014,2 hPa 0,0 mm 9,2 km/h (2 Bft) W-SW 247 0 min 1,5 C 11,9 km/h (2 Bft)
29.03.2016 22:35 7,2 C 7,0 C 68 % 1014,2 hPa 0,0 mm 8,3 km/h (2 Bft) W 270 0 min 1,7 C 5,7 km/h (1 Bft)
29.03.2016 22:40 7,3 C 7,1 C 69 % 1014,2 hPa 0,0 mm 7,7 km/h (2 Bft) SW 225 0 min 2,0 C 9,8 km/h (2 Bft)
29.03.2016 22:45 7,4 C 7,2 C 69 % 1014,2 hPa 0,0 mm 7,5 km/h (2 Bft) SW 225 0 min 2,1 C 9,2 km/h (2 Bft)
29.03.2016 22:50 7,4 C 7,3 C 69 % 1014,5 hPa 0,0 mm 6,0 km/h (2 Bft) W-NW 292 0 min 2,1 C 3,3 km/h (1 Bft)
29.03.2016 22:55 7,1 C 7,1 C 69 % 1014,5 hPa 0,0 mm 3,6 km/h (1 Bft) W 270 0 min 1,8 C 0,0 km/h (0 Bft)
29.03.2016 23:00 7,0 C 6,9 C 70 % 1014,5 hPa 0,0 mm 2,1 km/h (1 Bft) S-SO 157 0 min 1,9 C 6,3 km/h (2 Bft)
29.03.2016 23:05 6,9 C 6,8 C 71 % 1014,5 hPa 0,0 mm 1,8 km/h (1 Bft) SO 135 0 min 2,0 C 0,0 km/h (0 Bft)
29.03.2016 23:10 6,8 C 6,6 C 72 % 1014,2 hPa 0,0 mm 2,1 km/h (1 Bft) SO 135 0 min 2,1 C 3,0 km/h (1 Bft)
29.03.2016 23:15 6,4 C 6,3 C 72 % 1014,2 hPa 0,0 mm 0,3 km/h (0 Bft) O-SO 112 0 min 1,7 C 0,0 km/h (0 Bft)
29.03.2016 23:20 6,3 C 6,1 C 73 % 1014,2 hPa 0,0 mm 0,0 km/h (0 Bft) O 90 0 min 1,8 C 0,0 km/h (0 Bft)
29.03.2016 23:25 6,1 C 5,9 C 72 % 1014,2 hPa 0,0 mm 0,3 km/h (0 Bft) SW 225 0 min 1,4 C 0,0 km/h (0 Bft)
29.03.2016 23:30 6,3 C 6,1 C 72 % 1014,4 hPa 0,0 mm 0,6 km/h (0 Bft) SW 225 0 min 1,6 C 4,2 km/h (1 Bft)
29.03.2016 23:35 6,7 C 6,5 C 73 % 1014,4 hPa 0,0 mm 1,2 km/h (1 Bft) S-SW 202 0 min 2,2 C 3,3 km/h (1 Bft)
29.03.2016 23:38 6,7 C 6,5 C 72 % 1014,4 hPa 0,0 mm 2,4 km/h (1 Bft) SW 225 0 min 2,0 C 6,6 km/h (2 Bft)
29.03.2016 23:39 6,7 C 6,5 C 72 % 1014,4 hPa 0,0 mm 2,4 km/h (1 Bft) SW 225 0 min 2,0 C 6,6 km/h (2 Bft)
29.03.2016 23:40 6,7 C 6,5 C 72 % 1014,4 hPa 0,0 mm 2,4 km/h (1 Bft) SW 225 0 min 2,0 C 6,6 km/h (2 Bft)
29.03.2016 23:45 6,9 C 6,7 C 72 % 1014,4 hPa 0,0 mm 2,4 km/h (1 Bft) SW 225 0 min 2,2 C 3,6 km/h (1 Bft)
29.03.2016 23:50 6,8 C 6,7 C 72 % 1014,9 hPa 0,0 mm 1,8 km/h (1 Bft) O 90 0 min 2,1 C 0,0 km/h (0 Bft)
29.03.2016 23:55 6,2 C 6,4 C 71 % 1014,9 hPa 0,0 mm 0,6 km/h (0 Bft) O-NO 67 0 min 1,3 C 0,0 km/h (0 Bft)
_ Min-Zeit 00:00 00:00 16:55 00:25 - 23:20 - - - 03:05 23:55
Minimum _ 4,1 C 3,7 C 53 % 1008,4 hPa - 0,0 km/h (0 Bft) - - - -1,5 C 0,0 km/h (0 Bft)
_ Max-Zeit 16:35 14:15 00:15 13:05 14:15 09:45 - - 16:45 12:30 05:25
Maximum _ 12,4 C 15,4 C 78 % 1015,1 hPa 0,7 mm 22,1 km/h
W-NW (4 Bft)
- - 5 min 4,6 C 52,2 km/h
W-NW (7 Bft)
Durchschnitt _ 8,1 C 8,8 C 63 % 1012,3 hPa #2,1 mm 10,4 km/h (2 Bft) W - #1:50 h 1,4 C 13,1 km/h (3 Bft)